Canberra, Australia

1:46 AM AEST on June 25, 2018 (GMT +1000)
Canberra

Weather History for YSCB - June, 2018

Change the Weather History Date:

Thursday, June 14, 2018

  Actual Average Record
Temperature  
Mean Temperature 47 °F -  
Max Temperature 52 °F 53 °F - ()
Min Temperature 42 °F 32 °F - ()
Degree Days  
Heating Degree Days 18    
Moisture  
Dew Point 37 °F    
Average Humidity 66    
Maximum Humidity 87    
Minimum Humidity 36    
Precipitation  
Precipitation 0.00 in 0.05 in - ()
Sea Level Pressure  
Sea Level Pressure 29.95 in    
Wind  
Wind Speed 11 mph ()    
Max Wind Speed 20 mph    
Max Gust Speed -    
Visibility 6.2 miles    
Events      
T = Trace of Precipitation, MM = Missing Value Source: Averaged Metar Reports

Daily Weather History Graph

Daily Weather History Graph

Search for Another Location

Airport or City:

Astronomy

Jun. 14, 2018 Rise Set
Actual Time 7:09 AM AEST 4:57 PM AEST
Civil Twilight 6:41 AM AEST 5:25 PM AEST
Nautical Twilight 6:09 AM AEST 5:57 PM AEST
Astronomical Twilight 5:38 AM AEST 6:28 PM AEST
Moon 7:07 AM AEST (6/14) 5:31 PM AEST (6/14)
Length of Visible Light 10h 44m
Length of Day
9h 47m
New Moon, 0% of the Moon is Illuminated
Jun 14
New Moon
Jun 20
First Quarter
Jun 28
Full
Jul 6
Last Quarter
Jul 13
New

Hourly Weather History & Observations

Time (AEST) Temp. Windchill Dew Point Humidity Pressure Visibility Wind Dir Wind Speed Gust Speed Precip Events Conditions
12:00 AM 44 °F - 39 °F 75% 29.94 in - NW 9.2 mph - -   Clear
12:00 AM 44.6 °F 39.7 °F 39.2 °F 81% 29.89 in 6.2 mi NW 9.2 mph - N/A   Scattered Clouds
12:30 AM 44.6 °F 38.8 °F 39.2 °F 81% 29.89 in 6.2 mi NNW 11.5 mph - N/A   Unknown
1:00 AM 44 °F - 40 °F 79% 29.93 in - NNW 10.4 mph - -  
1:00 AM 44.6 °F 39.2 °F 39.2 °F 81% 29.89 in 6.2 mi NNW 10.4 mph - N/A   Unknown
1:30 AM 42.8 °F 37.5 °F 39.2 °F 87% 29.89 in 6.2 mi NNW 9.2 mph - N/A   Unknown
2:00 AM 44 °F - 40 °F 81% 29.92 in - NNW 12.7 mph - -  
2:00 AM 44.6 °F 38.4 °F 41.0 °F 87% 29.89 in 6.2 mi NNW 12.7 mph - N/A   Scattered Clouds
2:30 AM 44.6 °F 38.4 °F 39.2 °F 81% 29.89 in 6.2 mi NW 12.7 mph - N/A   Scattered Clouds
3:00 AM 42.8 °F 36.6 °F 39.2 °F 87% 29.89 in 6.2 mi NNW 11.5 mph - N/A   Scattered Clouds
3:30 AM 44.6 °F 39.2 °F 41.0 °F 87% 29.86 in 6.2 mi North 10.4 mph - N/A   Mostly Cloudy
4:00 AM 44 °F - 39 °F 76% 29.90 in - North 9.2 mph - -  
4:00 AM 44.6 °F 39.7 °F 39.2 °F 81% 29.86 in 6.2 mi North 9.2 mph - N/A   Scattered Clouds
4:30 AM 44.6 °F 38.8 °F 39.2 °F 81% 29.86 in 6.2 mi NW 11.5 mph - N/A   Mostly Cloudy
5:00 AM 46 °F - 39 °F 69% 29.90 in - NW 15.0 mph - -  
5:00 AM 46.4 °F 40.1 °F 39.2 °F 76% 29.86 in 6.2 mi NW 15.0 mph - N/A   Mostly Cloudy
5:30 AM 46.4 °F 40.4 °F 39.2 °F 76% 29.89 in 6.2 mi NW 13.8 mph - N/A   Mostly Cloudy
6:00 AM 46 °F - 40 °F 72% 29.92 in - NW 11.5 mph - -   Clear
6:00 AM 46.4 °F 41.1 °F 39.2 °F 76% 29.89 in 6.2 mi NW 11.5 mph - N/A   Mostly Cloudy
6:30 AM 46.4 °F 41.5 °F 39.2 °F 76% 29.89 in 6.2 mi NW 10.4 mph - N/A   Mostly Cloudy
7:00 AM 46 °F - 40 °F 72% 29.95 in - NW 12.7 mph - -  
7:00 AM 46.4 °F 40.7 °F 39.2 °F 76% 29.92 in 6.2 mi NW 12.7 mph - N/A   Mostly Cloudy
8:00 AM 46.4 °F 41.9 °F 41.0 °F 81% 29.95 in 6.2 mi North 9.2 mph - N/A   Mostly Cloudy
8:30 AM 48.2 °F - 39.2 °F 71% 29.95 in 6.2 mi NW 9.2 mph - N/A   Scattered Clouds
9:00 AM 49 °F - 40 °F 61% 29.99 in - NNW 10.4 mph - -   Clear
9:00 AM 50.0 °F - 39.2 °F 66% 29.95 in 6.2 mi NNW 10.4 mph - N/A   Scattered Clouds
9:30 AM 50.0 °F - 35.6 °F 58% 29.98 in 6.2 mi WNW 12.7 mph - N/A   Scattered Clouds
10:00 AM 49 °F - 34 °F 45% 30.01 in - WNW 12.7 mph - -  
10:00 AM 50.0 °F - 33.8 °F 54% 29.98 in 6.2 mi WNW 12.7 mph - N/A   Mostly Cloudy
10:30 AM 50.0 °F - 35.6 °F 58% 29.98 in 6.2 mi West 13.8 mph - N/A   Mostly Cloudy
11:00 AM 49 °F - 34 °F 45% 30.01 in - West 11.5 mph - -  
11:00 AM 50.0 °F - 33.8 °F 54% 29.98 in 6.2 mi West 11.5 mph - N/A   Mostly Cloudy
11:30 AM 51.8 °F - 35.6 °F 54% 29.98 in 6.2 mi WNW 10.4 mph - N/A   Mostly Cloudy
12:00 PM 50 °F - 34 °F 42% 30.00 in - West 13.8 mph - -   Clear
12:00 PM 50.0 °F - 33.8 °F 54% 29.98 in 6.2 mi West 13.8 mph - N/A   Scattered Clouds
12:30 PM 50.0 °F - 32.0 °F 50% 29.95 in 6.2 mi West 12.7 mph - N/A   Scattered Clouds
1:00 PM 51 °F - 32 °F 36% 29.97 in - West 17.3 mph - -  
1:00 PM 51.8 °F - 32.0 °F 47% 29.95 in 6.2 mi West 17.3 mph - N/A   Scattered Clouds
1:30 PM 50.0 °F - 33.8 °F 54% 29.95 in 6.2 mi West 15.0 mph - N/A   Scattered Clouds
2:00 PM 50.0 °F - 33.8 °F 54% 29.92 in 6.2 mi West 15.0 mph - N/A   Scattered Clouds
3:00 PM 52 °F - 34 °F 39% 29.97 in - West 18.4 mph - -   Clear
3:00 PM 51.8 °F - 33.8 °F 50% 29.92 in 6.2 mi West 18.4 mph - N/A   Scattered Clouds
3:30 PM 51.8 °F - 33.8 °F 50% 29.95 in 6.2 mi WNW 17.3 mph - N/A   Scattered Clouds
4:00 PM 50 °F - 34 °F 43% 29.98 in - WNW 12.7 mph - -  
4:00 PM 50.0 °F - 33.8 °F 54% 29.95 in 6.2 mi WNW 12.7 mph - N/A   Mostly Cloudy
4:30 PM 50.0 °F - 35.6 °F 58% 29.95 in 6.2 mi NNW 16.1 mph - N/A   Mostly Cloudy
5:00 PM 48 °F - 36 °F 53% 29.98 in - NW 16.1 mph - -  
5:00 PM 48.2 °F - 35.6 °F 62% 29.95 in 6.2 mi NW 16.1 mph - N/A   Scattered Clouds
6:00 PM 46 °F - 37 °F 61% 30.00 in - NW 9.2 mph - -   Clear
6:00 PM 46.4 °F 41.9 °F 37.4 °F 71% 29.95 in 6.2 mi NW 9.2 mph - N/A   Scattered Clouds
6:30 PM 46.4 °F 41.9 °F 37.4 °F 71% 29.95 in 6.2 mi NNW 9.2 mph - N/A   Partly Cloudy
7:00 PM 46 °F - 38 °F 67% 30.00 in - NNW 9.2 mph - -  
7:00 PM 46.4 °F 41.9 °F 39.2 °F 76% 29.98 in 6.2 mi NNW 9.2 mph - N/A   Scattered Clouds
7:30 PM 46.4 °F 41.9 °F 39.2 °F 76% 29.98 in 6.2 mi North 9.2 mph - N/A   Scattered Clouds
8:00 PM 47 °F - 39 °F 67% 30.01 in - North 10.4 mph - -  
8:00 PM 46.4 °F 41.5 °F 39.2 °F 76% 29.98 in 6.2 mi North 10.4 mph - N/A   Mostly Cloudy
8:30 PM 46.4 °F 41.5 °F 39.2 °F 76% 29.98 in 6.2 mi North 10.4 mph - N/A   Mostly Cloudy
9:00 PM 47 °F - 39 °F 66% 30.01 in - NNW 10.4 mph - -   Clear
9:00 PM 46.4 °F 41.5 °F 39.2 °F 76% 29.98 in 6.2 mi NNW 10.4 mph - N/A   Overcast
9:30 PM 48.2 °F - 39.2 °F 71% 29.98 in 6.2 mi NNW 13.8 mph - N/A   Overcast
10:00 PM 48 °F - 38 °F 60% 30.01 in - NW 13.8 mph - -  
10:00 PM 48.2 °F - 39.2 °F 71% 29.98 in 6.2 mi NW 13.8 mph - N/A   Overcast
10:30 PM 48.2 °F - 37.4 °F 66% 29.95 in 6.2 mi NNW 19.6 mph - N/A   Overcast
11:00 PM 48 °F - 38 °F 58% 30.00 in - NNW 19.6 mph - -  
11:00 PM 48.2 °F - 37.4 °F 66% 29.95 in 6.2 mi NNW 19.6 mph - N/A   Overcast
11:30 PM 48.2 °F - 37.4 °F 66% 29.95 in 6.2 mi NNW 16.1 mph - N/A   Overcast